N2NET Weather Reports


Display with metric or nautical units.
time (UTC)temp
F
wind
direction
speed
MPH
gust
MPH
rain 1hr
in
rain 24hr
in
rain mn
in
humidity
%
barometer
mb
20260903073106 59 0 0.0 0.0 0.01 0.68 0.17 100 1014.5
20260903071607 59 0 0.0 0.0 0.00 0.67 0.16 100 1014.7
20260903070104 59 0 0.0 0.0 0.00 0.67 0.16 100 1015.0
20260903064605 59 0 0.0 0.0 0.00 0.67 0.16 100 1015.3
20260903063102 59 0 0.0 0.0 0.02 0.67 0.16 100 1015.3
20260903061605 59 0 0.0 0.0 0.04 0.67 0.16 100 1015.3
20260903054613 59 0 0.0 1.0 0.05 0.66 0.15 100 1016.4
20260903053108 59 0 0.0 1.0 0.06 0.65 0.14 100 1016.8
20260903051605 59 0 0.0 4.0 0.07 0.63 0.12 100 1017.4
20260903050106 59 0 0.0 4.0 0.11 0.63 0.12 100 1017.0
20260903044605 59 22 3.0 6.0 0.15 0.62 0.10 100 1017.9
20260903043103 59 39 0.0 2.0 0.32 0.60 0.08 100 1017.3
20260903041614 59 0 0.0 0.0 0.31 0.57 0.05 100 1018.4
20260903040126 59 0 0.0 1.0 0.28 0.52 0.01 100 1018.3
20260903034604 59 0 0.0 2.0 0.22 0.47 0.47 100 1018.8
20260903033103 59 0 0.0 0.0 0.03 0.28 0.28 100 1019.4
20260903031603 59 210 1.0 1.0 0.01 0.26 0.26 100 1018.8
20260903030106 59 0 0.0 1.0 0.00 0.25 0.25 100 1018.5
20260903024607 59 0 0.0 2.0 0.00 0.25 0.25 100 1018.6
20260903023103 59 0 0.0 5.0 0.01 0.25 0.25 100 1018.9
20260903021604 59 146 0.0 3.0 0.01 0.25 0.25 100 1019.1
20260903020105 59 132 0.0 0.0 0.01 0.25 0.25 100 1019.4
20260903014604 59 0 0.0 2.0 0.01 0.26 0.25 100 1020.0
20260903013105 59 0 0.0 0.0 0.01 0.25 0.24 100 1019.5
20260903011602 59 0 0.0 1.0 0.01 0.25 0.24 100 1019.7
20260903010059 59 0 0.0 0.0 0.02 0.25 0.24 100 1019.4
20260903004605 59 0 0.0 1.0 0.02 0.25 0.24 100 1019.6
20260903003102 59 41 0.0 2.0 0.01 0.24 0.23 100 1019.4
20260903001608 59 129 0.0 4.0 0.01 0.24 0.23 100 1019.1
20260903000105 59 111 0.0 4.0 0.01 0.23 0.22 100 1019.3
20260902234604 59 118 0.0 3.0 0.01 0.23 0.22 100 1019.4
20260902233058 59 133 0.0 1.0 0.02 0.23 0.22 100 1019.4
20260902231601 59 0 0.0 2.0 0.02 0.23 0.22 100 1019.6
20260902230124 59 0 0.0 3.0 0.02 0.22 0.21 100 1019.5
20260902224604 59 0 1.0 4.0 0.02 0.22 0.21 100 1019.7
20260902223102 59 115 0.0 3.0 0.02 0.21 0.20 100 1020.1
20260902221606 60 0 0.0 2.0 0.02 0.21 0.20 100 1020.2
20260902220110 60 135 0.0 1.0 0.01 0.20 0.19 100 1020.1
20260902214635 60 116 0.0 3.0 0.01 0.20 0.19 100 1020.0
20260902213103 60 141 0.0 0.0 0.00 0.19 0.18 100 1020.2
20260902211605 60 0 1.0 3.0 0.00 0.19 0.18 100 1020.3
20260902210136 60 158 1.0 4.0 0.00 0.19 0.18 100 1020.1
20260902204606 60 134 0.0 3.0 0.00 0.25 0.18 100 1020.1
20260902203107 60 156 1.0 2.0 0.00 0.25 0.18 100 1020.1
20260902201621 60 28 2.0 7.0 0.00 0.25 0.18 100 1020.0
20260902200112 61 144 1.0 4.0 0.00 0.25 0.18 100 1019.9
20260902194600 61 62 0.0 2.0 0.00 0.25 0.18 100 1019.7
20260902193104 61 135 1.0 2.0 0.00 0.25 0.18 100 1019.9
20260902191605 61 0 0.0 3.0 0.00 0.25 0.18 100 1020.1
20260902190128 61 0 0.0 2.0 0.01 0.25 0.18 100 1020.2
20260902184610 61 0 0.0 1.0 0.01 0.25 0.18 100 1020.6
20260902183108 60 0 0.0 1.0 0.02 0.25 0.18 100 1020.8
20260902181623 60 0 0.0 3.0 0.06 0.25 0.18 100 1020.7
20260902180106 59 47 2.0 4.0 0.15 0.24 0.17 100 1020.8
20260902174604 58 0 0.0 3.0 0.15 0.24 0.17 100 1021.1
20260902173114 58 92 1.0 3.0 0.14 0.23 0.16 100 1020.9
20260902171621 58 0 0.0 2.0 0.10 0.19 0.12 100 1021.3
20260902170107 57 68 2.0 6.0 0.00 0.09 0.02 100 1022.1
20260902164604 58 0 0.0 3.0 0.00 0.09 0.02 100 1021.6
20260902163057 58 0 0.0 2.0 0.00 0.09 0.02 100 1021.5
20260902161608 58 0 0.0 2.0 0.00 0.09 0.02 100 1021.7
20260902160059 58 109 0.0 5.0 0.00 0.09 0.02 100 1021.6
20260902154557 58 0 1.0 4.0 0.00 0.09 0.02 100 1021.1
20260902153105 58 0 0.0 3.0 0.00 0.09 0.02 100 1021.2
20260902151604 58 63 1.0 4.0 0.00 0.09 0.02 100 1021.3
20260902150106 58 100 1.0 7.0 0.00 0.09 0.02 100 1021.3
20260902144559 58 111 2.0 5.0 0.00 0.09 0.02 100 1021.4
20260902143104 59 80 0.0 3.0 0.00 0.09 0.02 100 1021.5
20260902141605 58 0 0.0 3.0 0.00 0.09 0.02 100 1021.7
20260902134620 59 124 1.0 3.0 0.00 0.09 0.02 100 1021.3
20260902133102 59 108 0.0 4.0 0.00 0.09 0.02 100 1021.5
20260902131604 59 133 0.0 3.0 0.00 0.09 0.02 100 1021.2
20260902124559 58 103 0.0 3.0 0.00 0.17 0.02 100 1021.0
20260902123103 58 37 0.0 2.0 0.01 0.17 0.02 100 1020.9
20260902121602 58 129 0.0 4.0 0.01 0.17 0.02 100 1020.9
20260902120101 58 134 0.0 5.0 0.01 0.17 0.02 100 1020.7
20260902114604 58 95 1.0 4.0 0.01 0.17 0.02 100 1020.9
20260902113110 58 86 0.0 1.0 0.00 0.16 0.01 100 1020.6
20260902111601 58 121 0.0 2.0 0.00 0.16 0.01 100 1020.7
20260902104608 58 0 0.0 0.0 0.00 0.17 0.01 100 1020.7
20260902103103 58 0 0.0 0.0 0.00 0.17 0.01 100 1020.8
20260902101558 58 0 0.0 1.0 0.00 0.17 0.01 100 1020.6
20260902100059 58 0 0.0 0.0 0.00 0.17 0.01 100 1020.6
20260902094559 58 0 0.0 0.0 0.00 0.17 0.01 100 1020.3
20260902093101 58 0 0.0 0.0 0.00 0.17 0.01 100 1020.2
20260902091556 58 0 0.0 0.0 0.00 0.17 0.01 100 1020.1
20260902090059 58 0 0.0 0.0 0.00 0.17 0.01 100 1019.8
20260902084600 58 0 0.0 1.0 0.00 0.17 0.01 100 1019.9
20260902083058 58 0 0.0 1.0 0.00 0.17 0.01 100 1019.8
20260902081610 58 0 0.0 0.0 0.00 0.17 0.01 100 1019.7
20260902074614 58 0 0.0 1.0 0.00 0.17 0.01 100 1019.6